Flag for U.S.A. Weather past 2 weeks in Glendale, Arizona, U.S.A.

Now
84 °F

Clear.


Feels Like: 81 °F
Forecast: 59 / 92 °F
Wind: 5 mph from West

Location: Phoenix-Deer Valley Municipal Airport

Current Time: Mar 27, 2015 at 7:50:45 PM

Latest Report: Mar 27, 2015 at 6:53 PM


Visibility: 10 mi

Pressure: 29.92 "Hg

Humidity: 8%

Dew point: 16 °F

Location of GlendaleLocation

Historic Weather in Glendale — Graph

°F

Glendale temperature yesterday

Maximum temperature yesterday: 86 °F (at 4:53 PM)
Minimum temperature yesterday: 61 °F (at 3:53 AM)
Average temperature yesterday: 73 °F

Past Weeks' High & Low Weather Summary

 TemperatureHumidityPressure
High90 °F (Mar 27, 3:53 PM)96% (Mar 19, 4:53 AM)30.13 "Hg (Mar 19, 4:53 AM)
Low55 °F (Mar 19, 7:53 AM)6% (Mar 27, 3:53 PM)29.78 "Hg (Mar 17, 4:53 PM)
Average71 °F33%29.95 "Hg
* Reported Mar 12 5:53 PM — Mar 27 5:53 PM, Glendale, Weather by CustomWeather, © 2015

Note: Actual official high and low records may vary slightly from our data, if they occured in-between our weather recording intervals... More about our weather records

Advertising

Glendale weather history for previous 24 hours

 ConditionsComfort  
Time TempWeatherWind HumidityBarometerVisibility
5:53 PM
Fri, Mar 27
88 °FSunny.6 mph6%29.92 "Hg10 mi
4:53 PM89 °FSunny.7 mph6%29.93 "Hg10 mi
3:53 PM90 °FSunny.No wind6%29.93 "Hg10 mi
2:53 PM88 °FSunny.5 mph8%29.96 "Hg10 mi
1:53 PM88 °FSunny.3 mph7%29.99 "Hg10 mi
12:53 PM85 °FSunny.5 mph9%30.02 "Hg10 mi
11:53 AM83 °FSunny.3 mph11%30.03 "Hg10 mi
10:53 AM80 °FSunny.No wind12%30.06 "Hg10 mi
9:53 AM76 °FSunny.3 mph14%30.07 "Hg10 mi
8:53 AM71 °FSunny.No wind19%30.07 "Hg10 mi
7:53 AM65 °FSunny.No wind27%30.06 "Hg10 mi
6:53 AM60 °FSunny.No wind31%30.04 "Hg10 mi
5:53 AM62 °FClear.3 mph26%30.02 "Hg10 mi
4:53 AM63 °FClear.5 mph27%30.01 "Hg10 mi
3:53 AM64 °FClear.12 mph26%30.00 "Hg10 mi
2:53 AM64 °FClear.8 mph27%30.01 "Hg10 mi
1:53 AM68 °FClear.6 mph21%30.01 "Hg10 mi
12:53 AM66 °FClear.13 mph25%30.02 "Hg10 mi
11:53 PM
Thu, Mar 26
66 °FClear.No wind28%30.02 "Hg10 mi
10:53 PM65 °FClear.5 mph32%30.02 "Hg10 mi
9:53 PM69 °FClear.No wind26%30.01 "Hg10 mi
8:53 PM72 °FClear.No wind20%29.99 "Hg10 mi
7:53 PM77 °FClear.No wind13%29.97 "Hg10 mi
Weather by CustomWeather, © 2015

See weather overviewHow to use our weather pages